FW9359 Weather Reports


time (UTC)temp
C
wind
direction
speed
KPH
gust
KPH
rain 1hr
cm
rain 24hr
cm
rain mn
cm
humidity
%
barometer
mb
20260509135255 16 275 3.2 3.2 0.00 0.00 0.00 72 1008.0
20260509134752 15 205 3.2 3.2 0.00 0.00 0.00 72 1008.1
20260509134250 16 181 0.0 1.6 0.00 0.00 0.00 73 1008.1
20260509133746 15 180 0.0 1.6 0.00 0.00 0.00 73 1008.1
20260509133242 15 199 0.0 1.6 0.00 0.00 0.00 75 1008.3
20260509132742 15 214 3.2 4.8 0.00 0.00 0.00 75 1008.1
20260509132240 15 163 6.4 9.7 0.00 0.00 0.00 75 1008.8
20260509131736 15 211 1.6 1.6 0.00 0.00 0.00 74 1008.5
20260509131233 15 161 1.6 1.6 0.00 0.00 0.00 75 1008.3
20260509130729 15 227 6.4 8.0 0.00 0.00 0.00 76 1008.4
20260509130225 15 235 4.8 4.8 0.00 0.00 0.00 76 1008.3
20260509125722 14 131 3.2 4.8 0.00 0.00 0.00 77 1008.3
20260509125219 14 238 3.2 3.2 0.00 0.00 0.00 77 1008.3
20260509124715 14 161 1.6 1.6 0.00 0.00 0.00 78 1008.1
20260509124212 13 173 1.6 3.2 0.00 0.00 0.00 79 1008.3
20260509123710 13 187 0.0 1.6 0.00 0.00 0.00 81 1008.4
20260509123207 13 203 3.2 8.0 0.00 0.00 0.00 81 1008.3
20260509122702 13 149 4.8 8.0 0.00 0.00 0.00 82 1008.5
20260509122200 13 208 4.8 4.8 0.00 0.00 0.00 82 1008.3
20260509121656 12 198 4.8 4.8 0.00 0.00 0.00 83 1008.4
20260509121154 12 174 4.8 4.8 0.00 0.00 0.00 83 1008.1
20260509120652 12 178 4.8 4.8 0.00 0.00 0.00 84 1008.5
20260509120149 12 173 1.6 1.6 0.00 0.00 0.00 85 1008.3
20260509115647 12 194 3.2 4.8 0.00 0.00 0.00 86 1008.3
20260509115144 12 192 3.2 3.2 0.00 0.00 0.00 87 1008.1
20260509114642 12 184 3.2 3.2 0.00 0.00 0.00 87 1008.2
20260509114141 12 152 3.2 3.2 0.00 0.00 0.00 87 1008.3
20260509113639 12 208 1.6 1.6 0.00 0.00 0.00 87 1008.2
20260509113136 12 204 3.2 3.2 0.00 0.00 0.00 87 1008.0
20260509112632 12 198 4.8 4.8 0.00 0.00 0.00 87 1007.9
20260509112130 12 191 4.8 8.0 0.00 0.00 0.00 87 1008.0
20260509111627 12 241 1.6 3.2 0.00 0.00 0.00 87 1007.9
20260509111123 12 190 1.6 1.6 0.00 0.00 0.00 87 1008.2
20260509110621 12 225 1.6 1.6 0.00 0.00 0.00 87 1008.0
20260509110118 12 189 1.6 3.2 0.00 0.00 0.00 86 1007.7
20260509105616 12 228 3.2 4.8 0.00 0.00 0.00 86 1007.6
20260509105113 12 172 4.8 4.8 0.00 0.00 0.00 86 1007.7
20260509104610 12 209 1.6 1.6 0.00 0.00 0.00 86 1007.8
20260509104108 12 201 1.6 1.6 0.00 0.00 0.00 85 1007.8
20260509103604 12 184 1.6 3.2 0.00 0.00 0.00 85 1007.7
20260509103102 12 175 8.0 11.3 0.00 0.00 0.00 86 1007.6
20260509102559 12 188 1.6 1.6 0.00 0.00 0.00 86 1007.6
20260509102056 12 183 4.8 8.0 0.00 0.00 0.00 85 1007.8
20260509101552 12 191 3.2 3.2 0.00 0.00 0.00 86 1007.7
20260509101049 12 176 3.2 4.8 0.00 0.00 0.00 86 1007.6
20260509100546 12 195 4.8 4.8 0.00 0.00 0.00 86 1007.8
20260509100044 12 184 8.0 12.9 0.00 0.00 0.00 86 1007.8
20260509095540 12 210 8.0 9.7 0.00 0.00 0.00 86 1008.0
20260509095038 12 189 4.8 4.8 0.00 0.00 0.00 87 1008.0
20260509094534 12 186 1.6 3.2 0.00 0.00 0.00 87 1008.2
20260509094031 12 211 1.6 1.6 0.00 0.00 0.00 87 1008.1
20260509093530 12 185 4.8 9.7 0.00 0.00 0.00 87 1008.4
20260509093027 12 214 4.8 4.8 0.00 0.00 0.00 87 1008.4
20260509092525 12 184 4.8 4.8 0.00 0.00 0.00 87 1008.5
20260509092023 12 201 1.6 3.2 0.00 0.00 0.00 87 1008.6
20260509091520 12 215 0.0 1.6 0.00 0.00 0.00 87 1008.3
20260509091016 12 157 1.6 3.2 0.00 0.00 0.00 87 1008.3
20260509090514 12 185 4.8 4.8 0.00 0.00 0.00 87 1008.3
20260509090012 12 174 3.2 3.2 0.00 0.00 0.00 87 1008.5
20260509085508 12 179 1.6 1.6 0.00 0.00 0.00 87 1008.6
20260509085004 12 189 4.8 8.0 0.00 0.00 0.00 87 1008.6
20260509084502 12 159 3.2 3.2 0.00 0.00 0.00 87 1008.6
20260509083959 12 163 1.6 1.6 0.00 0.00 0.00 87 1008.8
20260509083456 12 196 1.6 1.6 0.00 0.00 0.00 87 1008.5
20260509082952 11 183 1.6 1.6 0.00 0.00 0.00 86 1008.6
20260509082450 12 196 1.6 1.6 0.00 0.00 0.00 86 1008.5
20260509081947 12 206 3.2 3.2 0.00 0.00 0.00 86 1008.5
20260509081444 12 184 1.6 1.6 0.00 0.00 0.00 86 1008.3
20260509080941 12 212 0.0 1.6 0.00 0.00 0.00 85 1008.5
20260509080439 12 229 0.0 1.6 0.00 0.00 0.00 85 1008.6
20260509075937 12 195 3.2 3.2 0.00 0.00 0.00 85 1008.6
20260509075434 12 180 3.2 3.2 0.00 0.00 0.00 85 1008.6
20260509074932 12 180 3.2 3.2 0.00 0.00 0.00 84 1008.6
20260509074429 12 214 3.2 3.2 0.00 0.00 0.00 84 1008.7
20260509073925 12 151 4.8 4.8 0.00 0.00 0.00 84 1008.5
20260509073422 12 213 8.0 11.3 0.00 0.00 0.00 84 1008.9
20260509072918 12 184 3.2 4.8 0.00 0.00 0.00 83 1008.9
20260509072415 12 201 1.6 1.6 0.00 0.00 0.00 83 1009.1
20260509071911 12 160 1.6 3.2 0.00 0.00 0.00 83 1009.2
20260509071409 12 179 3.2 4.8 0.00 0.00 0.00 83 1009.0
20260509070906 12 177 1.6 3.2 0.00 0.00 0.00 82 1009.1
20260509070402 12 192 4.8 8.0 0.00 0.00 0.00 83 1009.2
20260509065858 12 136 1.6 1.6 0.00 0.00 0.00 83 1009.3
20260509065355 12 205 3.2 3.2 0.00 0.00 0.00 83 1009.3
20260509064851 12 198 3.2 4.8 0.00 0.00 0.00 83 1009.4
20260509064349 12 144 4.8 8.0 0.00 0.00 0.00 83 1009.4
20260509063846 12 197 4.8 4.8 0.00 0.00 0.00 83 1009.6
20260509063342 12 170 4.8 8.0 0.00 0.00 0.00 83 1009.6
20260509062839 12 172 3.2 3.2 0.00 0.00 0.00 83 1009.4
20260509062336 13 183 3.2 3.2 0.00 0.00 0.00 83 1009.5
20260509061833 13 202 1.6 3.2 0.00 0.00 0.00 82 1009.5
20260509061332 13 179 4.8 4.8 0.00 0.00 0.00 82 1009.5
20260509060828 13 179 3.2 9.7 0.00 0.00 0.00 82 1009.7
20260509060325 13 178 4.8 4.8 0.00 0.00 0.00 82 1009.7
20260509055820 13 212 1.6 1.6 0.00 0.00 0.00 82 1009.8
20260509055316 13 200 6.4 9.7 0.00 0.00 0.00 82 1009.9
20260509054813 13 165 4.8 8.0 0.00 0.00 0.00 81 1009.9
20260509054310 13 149 1.6 3.2 0.00 0.00 0.00 81 1009.7
20260509053808 13 162 1.6 3.2 0.00 0.00 0.00 81 1009.9
20260509053305 13 178 4.8 8.0 0.00 0.00 0.00 80 1010.0
20260509052803 13 202 3.2 4.8 0.00 0.00 0.00 80 1009.7
20260509052301 13 210 4.8 8.0 0.00 0.00 0.00 80 1009.9
20260509051758 13 142 1.6 1.6 0.00 0.00 0.00 79 1009.7
20260509051256 13 187 4.8 4.8 0.00 0.00 0.00 78 1009.7
20260509050752 13 219 4.8 4.8 0.00 0.00 0.00 78 1009.7
20260509050249 13 184 4.8 8.0 0.00 0.00 0.00 77 1009.6
20260509045746 13 211 6.4 9.7 0.00 0.00 0.00 77 1009.7
20260509045243 13 195 8.0 9.7 0.00 0.00 0.00 76 1009.8
20260509044740 13 237 1.6 1.6 0.00 0.00 0.00 76 1009.8
20260509044238 13 204 3.2 3.2 0.00 0.00 0.00 76 1009.9
20260509043734 13 212 3.2 3.2 0.00 0.00 0.00 75 1010.1
20260509043230 13 184 3.2 3.2 0.00 0.00 0.00 75 1010.0
20260509042726 13 180 1.6 3.2 0.00 0.00 0.00 75 1010.0
20260509042223 13 183 4.8 4.8 0.00 0.00 0.00 74 1010.0
20260509041720 13 167 6.4 9.7 0.00 0.00 0.00 74 1010.1
20260509041217 13 198 3.2 4.8 0.00 0.00 0.00 74 1010.0
20260509040715 13 195 8.0 9.7 0.00 0.00 0.00 73 1010.0
20260509040212 13 173 0.0 1.6 0.00 0.00 0.00 73 1009.9
20260509035708 13 203 4.8 8.0 0.00 0.00 0.00 73 1010.0
20260509035205 13 193 0.0 0.0 0.00 0.00 0.00 73 1010.0
20260509034703 13 202 4.8 4.8 0.00 0.00 0.00 73 1010.0
20260509034200 13 201 1.6 1.6 0.00 0.00 0.00 73 1010.2
20260509033657 12 185 0.0 1.6 0.00 0.00 0.00 73 1010.1
20260509033154 12 187 4.8 4.8 0.00 0.00 0.00 73 1010.0
20260509032651 12 183 1.6 1.6 0.00 0.00 0.00 74 1010.2
20260509032148 12 177 3.2 3.2 0.00 0.00 0.00 75 1010.2
20260509031645 11 176 0.0 1.6 0.00 0.00 0.00 76 1010.2
20260509031143 11 188 0.0 1.6 0.00 0.00 0.00 78 1010.1
20260509030641 11 92 0.0 0.0 0.00 0.00 0.00 78 1010.2
20260509030138 11 92 0.0 0.0 0.00 0.00 0.00 78 1010.3
20260509025634 11 92 0.0 0.0 0.00 0.00 0.00 77 1010.2
20260509025130 11 92 0.0 0.0 0.00 0.00 0.00 77 1010.4
20260509024625 11 92 0.0 0.0 0.00 0.00 0.00 76 1010.5
20260509024121 11 92 0.0 0.0 0.00 0.00 0.00 75 1010.3
20260509023620 11 92 0.0 0.0 0.00 0.00 0.00 75 1010.4
20260509023116 11 92 0.0 0.0 0.00 0.00 0.00 74 1010.4
20260509022612 11 92 0.0 0.0 0.00 0.00 0.00 74 1010.6
20260509022111 11 92 0.0 0.0 0.00 0.00 0.00 74 1010.7
20260509021607 11 92 0.0 0.0 0.00 0.00 0.00 74 1010.8
20260509021104 11 92 0.0 0.0 0.00 0.00 0.00 73 1010.7
20260509020603 11 92 0.0 0.0 0.00 0.00 0.00 73 1010.8
20260509020059 11 92 0.0 0.0 0.00 0.00 0.00 73 1010.6
20260509015558 11 172 0.0 1.6 0.00 0.00 0.00 72 1010.7
20260509015055 11 175 0.0 0.0 0.00 0.00 0.00 72 1010.7
20260509014551 11 155 0.0 0.0 0.00 0.00 0.00 72 1010.6
20260509014048 11 62 0.0 0.0 0.00 0.00 0.00 71 1010.4
20260509013545 11 63 0.0 0.0 0.00 0.00 0.00 71 1010.7
20260509013040 11 63 0.0 0.0 0.00 0.00 0.00 70 1010.6
20260509012537 11 187 0.0 0.0 0.00 0.00 0.00 69 1010.3
20260509012034 11 182 0.0 0.0 0.00 0.00 0.00 68 1010.5
20260509011532 11 162 0.0 0.0 0.00 0.00 0.00 67 1010.7
20260509011029 12 163 0.0 0.0 0.00 0.00 0.00 66 1010.3
20260509010527 12 170 0.0 0.0 0.00 0.00 0.00 65 1010.4
20260509010023 12 88 0.0 0.0 0.00 0.00 0.00 65 1010.6
20260509005521 12 94 0.0 0.0 0.00 0.00 0.00 63 1010.6
20260509005021 12 169 0.0 1.6 0.00 0.00 0.00 63 1010.8
20260509004518 12 165 0.0 1.6 0.00 0.00 0.00 62 1010.3
20260509004015 12 150 0.0 0.0 0.00 0.00 0.00 61 1010.5
20260509003514 12 126 3.2 3.2 0.00 0.00 0.00 60 1010.7
20260509003010 12 352 0.0 0.0 0.00 0.00 0.00 60 1010.7
20260509002508 12 156 0.0 0.0 0.00 0.00 0.00 59 1010.7
20260509002005 12 140 3.2 3.2 0.00 0.00 0.00 58 1010.8
20260509001502 12 150 1.6 1.6 0.00 0.00 0.00 57 1010.9
20260509000958 12 153 0.0 0.0 0.00 0.00 0.00 57 1011.0
20260509000457 12 141 1.6 3.2 0.00 0.00 0.00 56 1010.5
20260508235952 12 170 1.6 1.6 0.00 0.00 0.00 56 1010.6
20260508235450 12 149 0.0 1.6 0.00 0.00 0.00 55 1011.0
20260508234946 12 159 1.6 1.6 0.00 0.00 0.00 54 1010.9
20260508234443 13 89 4.8 4.8 0.00 0.00 0.00 53 1010.8
20260508233941 13 154 0.0 0.0 0.00 0.00 0.00 53 1011.0
20260508233440 13 197 1.6 1.6 0.00 0.00 0.00 54 1011.2
20260508232937 13 189 3.2 3.2 0.00 0.00 0.00 53 1010.9
20260508232434 14 171 1.6 3.2 0.00 0.00 0.00 51 1011.1
20260508231931 14 133 3.2 3.2 0.00 0.00 0.00 50 1011.0
20260508231428 14 142 0.0 1.6 0.00 0.00 0.00 50 1011.2
20260508230925 14 179 1.6 1.6 0.00 0.00 0.00 49 1010.9
20260508230421 14 169 0.0 0.0 0.00 0.00 0.00 49 1011.0
20260508225919 15 165 3.2 4.8 0.00 0.00 0.00 48 1011.3
20260508225415 15 100 0.0 1.6 0.00 0.00 0.00 48 1011.3
20260508224913 15 200 0.0 1.6 0.00 0.00 0.00 49 1011.1
20260508224410 15 105 3.2 3.2 0.00 0.00 0.00 47 1011.2
20260508223908 15 72 3.2 3.2 0.00 0.00 0.00 48 1011.3
20260508223405 15 83 1.6 3.2 0.00 0.00 0.00 47 1011.2
20260508222903 15 43 3.2 4.8 0.00 0.00 0.00 45 1011.1
20260508222359 14 153 0.0 0.0 0.00 0.00 0.00 47 1011.3
20260508221856 14 148 1.6 3.2 0.00 0.00 0.00 46 1011.3
20260508221351 14 181 0.0 1.6 0.00 0.00 0.00 48 1011.3
20260508220848 14 190 0.0 1.6 0.00 0.00 0.00 50 1011.3
20260508220345 14 95 1.6 3.2 0.00 0.00 0.00 48 1011.2
20260508215841 14 138 3.2 3.2 0.00 0.00 0.00 47 1011.5
20260508215338 15 184 0.0 1.6 0.00 0.00 0.00 47 1011.4
20260508214835 15 1 0.0 0.0 0.00 0.00 0.00 46 1011.4
20260508214332 15 52 6.4 9.7 0.00 0.00 0.00 44 1011.3
20260508213828 16 140 3.2 3.2 0.00 0.00 0.00 42 1011.3
20260508213325 16 115 1.6 3.2 0.00 0.00 0.00 44 1011.5
20260508212821 15 0 1.6 1.6 0.00 0.00 0.00 46 1011.5
20260508212318 15 91 1.6 1.6 0.00 0.00 0.00 46 1011.5
20260508211814 15 2 1.6 1.6 0.00 0.00 0.00 44 1011.6
20260508211309 15 73 1.6 1.6 0.00 0.00 0.00 45 1011.6
20260508210808 15 77 1.6 1.6 0.00 0.00 0.00 45 1011.9
20260508210304 16 65 4.8 4.8 0.00 0.00 0.00 43 1011.6
20260508205801 16 222 1.6 1.6 0.00 0.00 0.00 41 1011.6
20260508205257 16 172 1.6 3.2 0.00 0.00 0.00 44 1011.6
20260508204753 16 3 4.8 4.8 0.00 0.00 0.00 44 1011.7
20260508204250 17 66 3.2 3.2 0.00 0.00 0.00 43 1011.9
20260508203746 17 152 3.2 4.8 0.00 0.00 0.00 43 1011.8
20260508203243 16 12 4.8 4.8 0.00 0.00 0.00 42 1011.9
20260508202738 17 87 6.4 9.7 0.00 0.00 0.00 42 1011.9
20260508202236 17 4 4.8 4.8 0.00 0.00 0.00 41 1012.1
20260508201733 17 297 0.0 1.6 0.00 0.00 0.00 42 1012.1
20260508201229 17 62 3.2 3.2 0.00 0.00 0.00 43 1012.0
20260508200726 17 102 0.0 1.6 0.00 0.00 0.00 41 1012.6
20260508200222 17 64 3.2 3.2 0.00 0.00 0.00 44 1012.2
20260508195718 16 148 3.2 4.8 0.00 0.00 0.00 46 1012.7
20260508195215 16 82 3.2 3.2 0.00 0.00 0.00 45 1012.7
20260508194712 16 353 4.8 4.8 0.00 0.00 0.00 45 1012.4
20260508194209 16 165 3.2 4.8 0.00 0.00 0.00 42 1012.7
20260508193706 17 29 6.4 8.0 0.00 0.00 0.00 39 1013.1
20260508193202 17 189 1.6 3.2 0.00 0.00 0.00 42 1012.8
20260508192659 17 166 3.2 3.2 0.00 0.00 0.00 42 1012.8
20260508192156 17 19 3.2 3.2 0.00 0.00 0.00 43 1013.1
20260508191653 17 184 4.8 4.8 0.00 0.00 0.00 39 1013.0
20260508191149 17 89 3.2 3.2 0.00 0.00 0.00 41 1012.9
20260508190647 16 7 3.2 3.2 0.00 0.00 0.00 45 1013.0
20260508190143 17 344 6.4 8.0 0.00 0.00 0.00 44 1013.2
20260508185641 17 135 3.2 4.8 0.00 0.00 0.00 39 1013.2
20260508185138 17 154 1.6 3.2 0.00 0.00 0.00 47 1013.4
20260508184635 17 96 4.8 8.0 0.00 0.00 0.00 48 1013.5
20260508184132 16 187 1.6 3.2 0.00 0.00 0.00 49 1013.6
20260508183629 17 181 1.6 1.6 0.00 0.00 0.00 45 1013.4
20260508183125 17 72 4.8 4.8 0.00 0.00 0.00 45 1013.5
20260508182621 17 75 3.2 3.2 0.00 0.00 0.00 43 1013.6
20260508182118 17 17 6.4 8.0 0.00 0.00 0.00 41 1013.7
20260508181613 17 39 4.8 4.8 0.00 0.00 0.00 40 1013.6
20260508181111 17 338 1.6 1.6 0.00 0.00 0.00 43 1013.8
20260508180608 17 133 1.6 3.2 0.00 0.00 0.00 44 1013.7
20260508180104 17 37 4.8 4.8 0.00 0.00 0.00 44 1013.9
20260508175601 16 89 1.6 1.6 0.00 0.00 0.00 48 1013.8
20260508175058 16 90 3.2 3.2 0.00 0.00 0.00 48 1013.9
20260508174555 17 74 4.8 9.7 0.00 0.00 0.00 51 1014.0
20260508174052 16 173 3.2 3.2 0.00 0.00 0.00 52 1014.1
20260508173549 16 86 4.8 8.0 0.00 0.00 0.00 50 1014.5
20260508173045 17 178 3.2 3.2 0.00 0.00 0.00 52 1014.1
20260508172542 16 89 3.2 3.2 0.00 0.00 0.00 51 1014.4
20260508172039 16 337 3.2 3.2 0.00 0.00 0.00 52 1014.4
20260508171535 16 62 3.2 4.8 0.00 0.00 0.00 54 1014.6
20260508171032 16 168 3.2 3.2 0.00 0.00 0.00 55 1014.7
20260508170529 16 20 4.8 4.8 0.00 0.00 0.00 56 1014.9
20260508170026 16 159 1.6 3.2 0.00 0.00 0.00 56 1014.7
20260508165524 15 149 1.6 3.2 0.00 0.00 0.00 56 1014.8
20260508165020 16 251 1.6 1.6 0.00 0.00 0.00 57 1014.8
20260508164517 16 202 3.2 3.2 0.00 0.00 0.00 54 1015.0
20260508164014 16 118 0.0 0.0 0.00 0.00 0.00 56 1015.0
20260508163511 16 46 1.6 1.6 0.00 0.00 0.00 58 1015.1
20260508163007 16 182 1.6 3.2 0.00 0.00 0.00 56 1015.3
20260508162505 16 95 4.8 8.0 0.00 0.00 0.00 57 1015.0
20260508162002 16 25 1.6 1.6 0.00 0.00 0.00 59 1015.3
20260508161458 16 31 3.2 3.2 0.00 0.00 0.00 61 1015.4
20260508160955 16 162 1.6 1.6 0.00 0.00 0.00 59 1015.2
20260508160454 16 136 1.6 3.2 0.00 0.00 0.00 59 1015.4
20260508155950 16 187 1.6 4.8 0.00 0.00 0.00 59 1015.5
20260508155448 16 159 1.6 1.6 0.00 0.00 0.00 59 1015.2
20260508154944 16 78 1.6 1.6 0.00 0.00 0.00 59 1015.5
20260508154442 15 155 0.0 1.6 0.00 0.00 0.00 58 1015.6
20260508153938 16 133 3.2 3.2 0.00 0.00 0.00 61 1015.3
20260508153435 16 148 3.2 3.2 0.00 0.00 0.00 59 1015.6
20260508152931 15 125 1.6 1.6 0.00 0.00 0.00 62 1015.6
20260508152428 16 201 0.0 1.6 0.00 0.00 0.00 63 1015.7
20260508151924 15 70 4.8 4.8 0.00 0.00 0.00 63 1015.6
20260508151422 15 70 0.0 0.0 0.00 0.00 0.00 61 1015.7
20260508150918 15 71 1.6 1.6 0.00 0.00 0.00 63 1015.7
20260508150415 15 70 1.6 3.2 0.00 0.00 0.00 65 1015.6
20260508145911 15 94 0.0 1.6 0.00 0.00 0.00 66 1015.8
20260508145407 15 200 0.0 1.6 0.00 0.00 0.00 67 1015.8
20260508144904 14 158 1.6 1.6 0.00 0.00 0.00 68 1015.8
20260508144402 13 146 0.0 1.6 0.00 0.00 0.00 69 1015.8
20260508143859 13 212 3.2 3.2 0.00 0.00 0.00 72 1015.7
20260508143356 13 215 3.2 3.2 0.00 0.00 0.00 71 1015.5
20260508142853 12 175 0.0 1.6 0.00 0.00 0.00 73 1015.8
20260508142350 12 158 3.2 3.2 0.00 0.00 0.00 74 1015.8
20260508141846 11 197 0.0 0.0 0.00 0.00 0.00 73 1015.8
20260508141343 12 187 6.4 9.7 0.00 0.00 0.00 70 1015.7
20260508140841 12 103 0.0 1.6 0.00 0.00 0.00 72 1015.8
20260508140338 12 94 1.6 1.6 0.00 0.00 0.00 71 1015.6
20260508135833 12 71 0.0 1.6 0.00 0.00 0.00 72 1015.7